Williamstown, MA

6:35 PM EST on February 09, 2016 (GMT -0500)
Harriman And West

Weather History for KAQW - September, 2013

Change the Weather History Date:

Friday, September 6, 2013

  Actual Average Record
Temperature  
Mean Temperature 52 °F -  
Max Temperature 66 °F 73 °F 87 °F (1996)
Min Temperature 39 °F 51 °F 37 °F (2000)
Degree Days  
Heating Degree Days 14    
Growing Degree Days 2 (Base 50)    
Moisture  
Dew Point 39 °F    
Average Humidity 73    
Maximum Humidity 100    
Minimum Humidity 33    
Precipitation  
Precipitation 0.00 in - - ()
Sea Level Pressure  
Sea Level Pressure 30.23 in    
Wind  
Wind Speed 1 mph (NW)    
Max Wind Speed 7 mph    
Max Gust Speed -    
Visibility 9 miles    
Events      
Averages and records for this station are not official NWS values.
T = Trace of Precipitation, MM = Missing Value Source: NWS Daily Summary

Daily Weather History Graph

Daily Weather History Graph

Search for Another Location

Airport or City:

Trip Planner

Search our weather history database for the weather conditions in past years. The results will help you decide how hot, cold, wet, or windy it might be!

Date:

Astronomy

Sep. 06, 2013 Rise Set
Actual Time 6:23 AM EDT 7:18 PM EDT
Civil Twilight 5:54 AM EDT 7:46 PM EDT
Nautical Twilight 5:20 AM EDT 8:20 PM EDT
Astronomical Twilight 4:44 AM EDT 8:56 PM EDT
Moon 7:35 AM EDT (9/6) 7:37 PM EDT (9/6)
Length of Visible Light 13h 52m
Length of Day
12h 54m
New Moon, 1% of the Moon is Illuminated
Sep 6
New Moon
Sep 12
First Quarter
Sep 19
Full
Sep 26
Last Quarter
Oct 4
New

Hourly Weather History & Observations

Time (EDT) Temp. Dew Point Humidity Pressure Visibility Wind Dir Wind Speed Gust Speed Precip Events Conditions
12:52 AM 44.1 °F 41.0 °F 89% 30.22 in 10.0 mi Calm Calm - N/A   Clear
1:52 AM 43.0 °F 41.0 °F 93% 30.22 in 10.0 mi Calm Calm - N/A   Clear
2:52 AM 42.1 °F 39.9 °F 92% 30.23 in 10.0 mi Calm Calm - N/A   Clear
3:52 AM 41.0 °F 39.0 °F 93% 30.24 in 10.0 mi Calm Calm - N/A   Clear
4:39 AM 41.0 °F 39.2 °F 93% 30.25 in 2.5 mi Calm Calm - N/A   Partly Cloudy
4:47 AM 39.2 °F 39.2 °F 100% 30.25 in 1.5 mi Calm Calm - N/A   Scattered Clouds
4:50 AM 39.2 °F 37.4 °F 93% 30.25 in 3.0 mi Calm Calm - N/A   Scattered Clouds
4:52 AM 39.9 °F 37.9 °F 93% 30.26 in 7.0 mi Calm Calm - N/A   Scattered Clouds
5:52 AM 39.0 °F 37.0 °F 93% 30.26 in 10.0 mi Calm Calm - N/A   Clear
6:36 AM 39.2 °F 37.4 °F 93% 30.27 in 10.0 mi Calm Calm - N/A   Scattered Clouds
6:52 AM 39.0 °F 37.9 °F 96% 30.29 in 10.0 mi Calm Calm - N/A   Partly Cloudy
7:52 AM 44.1 °F 39.9 °F 85% 30.29 in 10.0 mi Calm Calm - N/A   Clear
8:52 AM 48.0 °F 39.9 °F 74% 30.29 in 10.0 mi Calm Calm - N/A   Clear
9:52 AM 52.0 °F 39.9 °F 63% 30.29 in 10.0 mi Calm Calm - N/A   Clear
10:52 AM 59.0 °F 34.0 °F 39% 30.28 in 10.0 mi Calm Calm - N/A   Clear
11:52 AM 61.0 °F 34.0 °F 36% 30.26 in 10.0 mi NNW 6.9 mph - N/A   Clear
12:52 PM 62.1 °F 36.0 °F 38% 30.25 in 10.0 mi Calm Calm - N/A   Clear
1:52 PM 64.0 °F 36.0 °F 35% 30.23 in 10.0 mi Calm Calm - N/A   Clear
2:52 PM 64.0 °F 36.0 °F 35% 30.20 in 10.0 mi NNW 5.8 mph - N/A   Clear
3:52 PM 64.9 °F 37.0 °F 36% 30.18 in 10.0 mi Variable 3.5 mph - N/A   Clear
4:52 PM 64.9 °F 35.1 °F 33% 30.17 in 10.0 mi Variable 4.6 mph - N/A   Clear
5:52 PM 63.0 °F 37.0 °F 38% 30.17 in 10.0 mi West 3.5 mph - N/A   Clear
6:52 PM 57.0 °F 45.0 °F 64% 30.16 in 10.0 mi Calm Calm - N/A   Clear
7:52 PM 51.1 °F 45.0 °F 80% 30.17 in 10.0 mi Calm Calm - N/A   Clear
8:52 PM 48.9 °F 45.0 °F 86% 30.17 in 10.0 mi Calm Calm - N/A   Clear
9:52 PM 48.0 °F 45.0 °F 89% 30.17 in 10.0 mi Calm Calm - N/A   Clear
10:52 PM 46.0 °F 44.1 °F 93% 30.16 in 10.0 mi Calm Calm - N/A   Clear
11:52 PM 46.0 °F 43.0 °F 89% 30.15 in 10.0 mi Calm Calm - N/A   Clear